Wind_Speed
5 4 4 4 4 4 5 5 5 6 6 6 6 6 6 6 6 7 8 9 9 10 11 11 11 11 12 12 11 11 10 10 10 10 10 9 8 7 6 6 5 5 5
5 4 4 5 5 4 4 5 5 5 5 6 6 6 6 6 6 7 8 9 10 10 10 10 12 12 12 12 11 12 10 11 10 10 9 8 8 7 6 5 5 5 5
5 5 5 6 6 6 6 6 6 6 5 6 6 6 6 6 7 8 9 10 10 10 10 12 14 12 13 13 12 12 10 10 9 9 8 8 7 6 6 5 5 5 5
5 5 6 6 6 7 7 7 6 6 6 7 6 6 6 6 8 9 9 9 9 10 11 13 14 13 13 12 12 11 10 10 9 8 7 7 6 6 5 5 5 5 4
6 6 7 7 7 7 7 7 7 7 6 6 6 6 7 7 8 8 8 8 9 10 11 12 12 11 11 10 10 10 9 9 8 6 7 7 6 6 6 5 5 4 4
6 7 7 7 7 7 7 7 7 7 7 7 7 6 7 7 8 8 8 8 9 10 10 10 10 11 11 11 10 9 9 8 6 6 7 6 6 5 5 5 4 4 3
7 8 8 8 8 7 7 7 7 8 7 7 7 7 7 7 7 7 7 9 10 11 11 10 10 10 10 10 9 8 7 6 6 6 6 6 5 5 4 4 4 4 3
8 8 8 8 8 8 7 8 7 7 8 8 8 8 7 7 7 7 8 9 10 10 10 10 10 9 8 8 7 7 6 6 6 6 5 5 5 5 4 3 4 4 4
8 8 8 8 8 8 8 8 8 7 7 8 8 8 7 8 8 8 8 9 9 8 8 9 9 8 7 7 7 6 6 5 5 5 5 5 4 4 4 4 3 3 3
10 9 8 8 8 9 8 8 8 8 8 8 8 8 8 8 8 8 8 8 9 8 8 8 8 7 7 7 6 6 6 5 4 4 4 4 4 4 3 3 2 2 2
10 9 9 8 9 9 8 9 9 8 8 8 8 8 8 9 9 9 9 8 7 7 7 8 7 7 7 6 6 5 5 4 4 4 4 4 3 3 2 2 2 2 2
11 10 9 9 9 9 9 9 9 9 8 8 8 8 9 9 8 8 9 8 8 7 7 7 7 6 6 5 5 4 4 4 4 4 4 4 3 3 3 2 2 2 1
12 11 10 9 9 9 8 8 8 8 8 8 8 8 8 8 8 8 8 7 7 7 7 7 6 5 5 4 3 4 4 3 3 4 3 3 3 3 3 3 2 2 2
13 12 12 10 9 9 9 9 8 8 7 7 7 7 8 8 7 7 7 7 7 6 6 5 5 4 4 3 3 3 3 3 3 3 2 3 3 3 3 3 3 3 3
12 12 11 11 10 9 9 8 8 7 7 7 7 7 7 7 7 7 7 7 6 6 5 4 4 4 3 2 2 3 3 3 3 3 3 3 3 3 4 4 4 5 5
12 12 11 10 10 9 8 8 8 7 7 7 6 6 6 6 6 6 6 5 5 5 4 4 3 3 3 3 3 3 3 3 3 3 4 4 4 4 5 5 5 6 6
12 12 11 11 10 10 9 8 8 8 7 8 7 7 6 6 5 5 5 4 4 3 3 3 2 2 3 3 3 3 3 3 3 4 4 5 5 6 6 7 7 7 7
12 12 11 11 11 10 10 9 8 8 8 7 7 6 6 5 5 5 4 3 3 2 2 2 2 1 2 2 3 3 3 4 4 5 5 6 6 7 7 8 8 9 9
12 12 11 10 10 10 10 10 9 8 8 7 7 6 6 5 5 4 3 2 2 2 1 1 1 1 2 2 2 3 4 5 5 6 7 7 8 8 9 9 9 9 10
12 12 11 10 10 10 10 10 9 9 8 8 7 7 6 5 4 3 2 2 1 1 1 0 1 1 2 3 4 4 4 4 5 6 6 7 7 8 9 10 10 11 11
12 11 11 11 10 10 10 9 9 9 8 8 7 7 6 5 4 4 2 1 1 0 1 1 2 3 2 3 4 4 4 5 5 6 6 7 8 9 10 10 10 11 12
11 11 11 10 10 11 10 10 10 9 8 8 8 7 6 5 4 3 3 2 1 1 1 2 2 2 3 3 4 5 5 5 5 6 7 8 9 10 11 11 12 12 12
10 10 10 10 10 11 11 11 10 10 10 9 8 8 7 6 5 3 2 2 1 1 2 2 3 3 4 4 4 5 5 6 7 7 8 9 10 10 10 11 11 11 12
9 9 9 9 10 10 10 11 10 10 10 9 8 8 8 7 6 5 4 3 3 2 3 3 3 4 5 5 5 6 6 8 8 8 9 9 9 10 10 11 12 12 12
7 8 9 9 9 9 10 10 10 9 9 9 8 8 7 7 7 6 5 5 5 3 3 3 4 5 6 7 7 8 8 8 9 9 9 10 10 10 11 11 11 13 13
7 7 7 8 8 8 8 9 8 9 9 9 9 8 7 7 6 6 6 6 6 5 5 5 5 6 7 7 8 8 9 9 9 10 10 11 11 11 12 12 13 13 14
Wind_Direction
70 69 75 84 84 79 80 79 83 87 86 96 100 106 105 106 107 114 125 134 141 146 150 155 153 148 147 147 144 149 152 143 143 144 138 134 132 131 128 122 120 122 127
71 75 82 86 84 80 79 81 83 86 88 89 95 105 106 105 110 122 130 132 132 135 142 148 145 141 142 143 144 146 147 143 140 141 135 129 131 131 129 130 126 120 124
70 83 83 82 85 84 82 83 89 92 92 86 95 102 107 110 117 119 132 133 131 139 146 144 144 143 140 140 138 138 137 136 136 138 135 129 129 131 131 128 126 122 123
72 81 83 80 82 83 84 85 91 90 83 81 88 96 98 111 123 124 126 134 135 138 141 143 143 140 135 136 136 134 132 131 131 134 135 134 134 133 131 127 129 127 125
74 82 82 80 81 84 85 85 90 87 85 85 89 94 94 103 117 120 123 130 134 134 134 139 141 137 136 135 135 134 131 128 130 127 133 137 137 128 127 128 129 129 130
78 84 84 83 81 83 84 89 94 90 88 91 95 98 102 104 111 119 127 131 132 133 133 135 138 139 140 139 137 137 135 133 130 125 128 128 130 134 132 134 135 134 135
76 82 85 83 82 85 88 89 89 92 92 93 98 101 104 105 109 113 121 133 136 138 137 133 133 136 143 138 138 140 143 139 134 129 130 129 130 136 136 139 143 140 137
73 79 84 83 83 88 89 88 89 94 95 96 98 104 105 102 105 111 119 128 134 137 137 134 133 137 138 137 137 137 136 135 134 130 134 130 124 134 138 139 137 135 134
69 77 85 84 83 87 87 92 91 93 95 96 100 104 103 103 108 114 123 128 128 130 133 137 138 139 139 139 140 141 140 140 139 134 136 133 128 128 130 129 133 133 132
68 74 80 81 85 91 88 91 95 95 96 102 104 100 102 107 113 121 126 129 126 128 131 133 132 133 139 141 142 146 145 147 150 152 151 150 150 146 139 140 142 144 136
66 71 76 79 87 94 96 95 95 97 103 108 109 108 109 112 114 125 126 129 131 131 133 135 136 139 143 145 150 153 154 156 163 169 171 169 172 170 164 167 161 149 139
61 68 74 76 82 91 98 100 101 100 107 110 111 112 111 114 118 120 131 136 138 140 142 142 144 146 147 148 154 157 158 161 169 178 183 183 185 189 190 190 186 181 185
59 64 69 73 76 82 94 102 102 105 110 112 113 114 119 122 123 122 124 128 132 135 136 139 149 152 152 152 155 158 151 154 168 175 180 191 194 199 204 213 222 225 238
58 61 67 68 70 76 86 97 102 104 107 112 117 123 127 128 126 124 124 127 129 133 135 135 140 149 153 154 168 176 174 173 178 182 198 214 218 221 227 232 234 241 259
57 58 61 67 70 75 80 90 96 99 107 115 119 121 123 127 126 124 125 125 133 135 135 141 152 156 163 168 180 187 194 202 210 217 230 238 240 236 243 251 252 256 265
58 59 62 65 68 73 79 84 93 100 106 109 111 116 119 123 128 130 130 131 131 137 149 150 160 178 187 194 187 191 199 217 228 238 250 254 256 254 257 261 264 270 274
58 60 64 66 68 72 76 80 87 91 98 102 105 114 118 120 125 134 136 140 139 136 137 152 169 188 190 196 200 205 219 231 242 251 254 261 259 260 263 265 268 271 276
57 59 64 69 71 71 73 77 85 89 91 96 101 108 114 122 130 134 134 140 142 133 132 152 174 193 201 207 210 222 240 255 262 264 261 264 264 263 268 268 271 271 274
56 59 64 70 72 72 74 77 81 84 87 90 96 100 104 114 121 128 134 143 153 156 162 166 184 211 228 226 235 257 266 267 275 273 267 268 269 266 267 269 271 272 274
57 58 63 70 73 73 74 78 81 80 79 80 86 91 96 102 109 119 133 130 121 126 193 243 262 268 263 255 261 272 278 274 282 282 276 277 278 272 272 273 274 273 275
56 59 64 69 73 73 72 75 79 80 78 78 81 84 85 92 100 105 105 123 123 238 305 305 277 278 282 268 259 272 281 280 284 283 283 282 281 278 275 278 277 278 278
55 58 64 69 73 75 73 73 77 77 78 76 76 80 81 85 87 87 86 87 67 286 277 284 274 277 277 282 278 273 275 286 291 292 288 289 288 282 279 279 278 278 280
57 61 65 69 72 75 75 74 73 75 77 77 74 75 76 74 75 75 62 39 1 324 304 298 298 303 299 300 299 289 287 288 291 292 292 292 289 285 285 285 286 284 284
61 65 67 70 71 72 73 73 73 74 73 71 70 68 69 68 65 62 50 29 6 339 322 308 309 306 307 306 302 298 296 291 293 292 292 290 289 285 285 284 286 290 290
64 68 68 69 71 73 72 72 73 73 70 66 65 61 61 61 58 54 45 34 22 0 331 313 306 303 300 300 298 295 292 295 292 290 292 291 289 285 284 285 288 290 289
69 69 67 68 71 73 74 74 72 70 67 64 61 59 56 54 51 46 37 30 20 7 348 325 310 304 300 298 298 300 298 295 294 293 291 291 291 289 290 290 290 291 291
Height
5861 5860 5860 5860 5859 5859 5859 5859 5859 5859 5859 5860 5860 5860 5860 5861 5861 5862 5862 5863 5863 5863 5864 5865 5867 5868 5870 5871 5873 5875 5876 5878 5880 5881 5882 5884 5885 5886 5888 5888 5889 5890 5890
5861 5861 5861 5860 5860 5860 5860 5860 5860 5860 5860 5860 5861 5861 5861 5861 5862 5863 5863 5864 5864 5865 5866 5866 5868 5870 5871 5873 5874 5876 5878 5879 5881 5882 5884 5885 5886 5888 5889 5889 5890 5890 5891
5862 5861 5861 5861 5860 5860 5860 5860 5860 5861 5861 5861 5861 5862 5862 5862 5863 5863 5864 5865 5866 5867 5868 5868 5870 5871 5873 5874 5876 5877 5879 5881 5882 5883 5885 5886 5887 5888 5889 5890 5891 5891 5892
5863 5862 5862 5861 5861 5861 5861 5861 5861 5861 5861 5862 5862 5863 5863 5863 5864 5865 5866 5867 5868 5868 5869 5870 5871 5873 5874 5876 5878 5880 5881 5882 5884 5885 5886 5887 5888 5889 5890 5890 5891 5892 5892
5864 5863 5862 5862 5862 5862 5862 5861 5862 5862 5862 5862 5863 5863 5864 5865 5865 5866 5867 5868 5869 5870 5871 5872 5874 5875 5877 5878 5880 5881 5882 5884 5885 5886 5887 5888 5889 5889 5890 5891 5891 5892 5893
5865 5864 5863 5863 5862 5862 5862 5862 5862 5862 5863 5863 5863 5864 5865 5866 5866 5867 5868 5869 5871 5872 5873 5874 5876 5877 5879 5880 5881 5883 5884 5885 5886 5887 5888 5889 5890 5890 5891 5891 5892 5892 5893
5866 5865 5864 5864 5863 5863 5863 5863 5863 5863 5863 5864 5864 5865 5866 5867 5868 5869 5870 5870 5872 5874 5875 5876 5877 5879 5880 5881 5883 5884 5885 5886 5887 5888 5889 5890 5890 5891 5892 5892 5893 5893 5894
5867 5866 5865 5865 5864 5864 5864 5864 5864 5864 5864 5865 5865 5866 5867 5868 5869 5870 5872 5872 5874 5875 5876 5877 5879 5880 5881 5883 5884 5885 5886 5887 5888 5889 5890 5890 5891 5892 5892 5893 5893 5894 5894
5868 5867 5866 5866 5865 5865 5865 5865 5865 5865 5866 5866 5867 5868 5869 5870 5871 5872 5873 5874 5875 5876 5878 5879 5880 5882 5883 5884 5885 5886 5887 5888 5889 5890 5891 5891 5892 5893 5893 5894 5894 5895 5895
5869 5868 5868 5867 5867 5867 5867 5867 5867 5867 5867 5868 5869 5869 5870 5871 5872 5873 5874 5875 5877 5878 5879 5881 5882 5883 5884 5885 5886 5887 5888 5889 5890 5890 5891 5892 5893 5893 5894 5894 5895 5895 5896
5871 5870 5869 5868 5868 5868 5868 5868 5868 5868 5869 5869 5870 5871 5872 5872 5873 5874 5875 5876 5878 5879 5880 5882 5883 5884 5885 5886 5887 5888 5888 5889 5890 5891 5892 5892 5893 5893 5894 5895 5895 5895 5896
5872 5871 5871 5870 5870 5869 5869 5870 5870 5870 5870 5871 5872 5872 5873 5874 5875 5876 5877 5878 5879 5880 5881 5882 5884 5884 5886 5887 5888 5888 5889 5889 5890 5891 5892 5893 5893 5894 5894 5895 5895 5895 5896
5874 5873 5872 5872 5871 5871 5871 5871 5871 5871 5872 5873 5873 5874 5875 5876 5877 5877 5878 5879 5880 5881 5882 5883 5884 5885 5886 5887 5888 5888 5889 5890 5890 5891 5892 5893 5893 5894 5894 5895 5895 5895 5896
5876 5875 5875 5874 5873 5873 5873 5873 5873 5873 5874 5874 5875 5875 5876 5877 5878 5879 5880 5881 5881 5882 5883 5884 5885 5886 5887 5887 5888 5889 5889 5890 5891 5891 5892 5893 5893 5893 5894 5894 5895 5895 5895
5879 5878 5877 5876 5876 5875 5875 5875 5874 5875 5875 5875 5876 5877 5877 5878 5879 5880 5881 5882 5883 5883 5884 5885 5886 5886 5887 5888 5888 5889 5889 5890 5891 5891 5892 5892 5893 5893 5893 5894 5894 5895 5895
5881 5880 5879 5878 5878 5877 5877 5877 5876 5876 5877 5877 5877 5878 5878 5879 5880 5881 5882 5883 5883 5884 5885 5886 5886 5886 5887 5888 5888 5889 5889 5890 5890 5891 5891 5892 5892 5892 5893 5893 5893 5894 5894
5883 5882 5881 5880 5880 5879 5878 5878 5878 5878 5878 5878 5878 5878 5879 5880 5881 5881 5882 5883 5884 5885 5885 5886 5886 5886 5887 5888 5888 5889 5889 5889 5890 5890 5891 5891 5891 5892 5892 5892 5892 5892 5892
5885 5884 5883 5882 5882 5881 5880 5880 5879 5879 5879 5879 5879 5879 5880 5880 5881 5882 5883 5884 5884 5885 5885 5886 5886 5886 5887 5887 5888 5888 5889 5889 5889 5889 5890 5890 5890 5890 5890 5891 5891 5891 5891
5888 5887 5885 5884 5884 5883 5882 5882 5881 5881 5881 5880 5880 5880 5881 5881 5882 5883 5883 5884 5885 5885 5885 5886 5886 5886 5887 5887 5887 5888 5888 5888 5888 5888 5888 5889 5889 5889 5889 5889 5889 5889 5889
5890 5889 5887 5886 5886 5885 5884 5883 5883 5883 5882 5882 5882 5882 5882 5882 5883 5883 5884 5884 5885 5885 5885 5885 5886 5886 5886 5886 5886 5887 5887 5887 5887 5887 5887 5887 5887 5887 5887 5887 5886 5886 5886
5892 5891 5889 5888 5887 5887 5886 5885 5885 5884 5884 5884 5883 5883 5883 5883 5883 5884 5884 5884 5885 5885 5885 5885 5885 5885 5885 5885 5885 5886 5886 5886 5885 5885 5885 5885 5885 5885 5885 5884 5884 5884 5883
5894 5892 5891 5890 5889 5888 5888 5887 5886 5886 5885 5885 5884 5884 5884 5884 5884 5884 5885 5884 5884 5884 5885 5884 5885 5884 5884 5884 5884 5884 5884 5885 5884 5884 5884 5884 5883 5883 5882 5882 5881 5881 5880
5896 5894 5894 5893 5891 5890 5889 5889 5888 5887 5887 5886 5886 5885 5885 5885 5885 5885 5885 5884 5884 5884 5884 5884 5884 5884 5884 5883 5883 5883 5883 5883 5883 5883 5882 5881 5881 5880 5880 5879 5878 5878 5877
5897 5896 5895 5894 5893 5892 5891 5890 5890 5889 5889 5888 5887 5887 5886 5886 5885 5885 5885 5884 5884 5884 5884 5883 5883 5883 5883 5882 5882 5881 5881 5881 5881 5881 5880 5879 5878 5878 5877 5877 5876 5875 5875
5898 5898 5897 5896 5895 5894 5893 5892 5892 5891 5890 5889 5889 5888 5888 5887 5886 5886 5885 5885 5884 5883 5883 5883 5883 5882 5882 5881 5880 5880 5879 5879 5878 5878 5878 5877 5876 5876 5875 5874 5873 5873 5872
5899 5899 5898 5898 5897 5896 5895 5894 5893 5893 5892 5891 5890 5889 5889 5888 5887 5887 5886 5885 5884 5883 5883 5882 5881 5881 5880 5879 5879 5878 5877 5877 5876 5876 5875 5874 5874 5873 5872 5871 5870 5870 5869